Flag for U.S.A. Weather past 2 weeks in Grand Junction, Colorado, U.S.A.

Now
70 °F

Mostly cloudy.


Feels Like: 75 °F
Forecast: 68 / 84 °F
Wind: 16 mph from Southeast

Location: Walker Field

Current Time: Jul 29, 2014 at 12:37:43 AM

Latest Report: Jul 28, 2014 at 11:53 PM


Visibility: 10 mi

Pressure: 30.06 "Hg

Humidity: 64%

Dew point: 57 °F

Location of Grand JunctionLocation

Historic Weather in Grand Junction — Graph

°F

Grand Junction temperature yesterday

Maximum temperature yesterday: 86 °F (at 2:53 PM)
Minimum temperature yesterday: 68 °F (at 4:53 AM)
Average temperature yesterday: 77 °F

Past Weeks' High & Low Weather Summary

 TemperatureHumidityPressure
High98 °F (Jul 23, 3:53 PM)68% (Jul 26, 3:53 AM)30.12 "Hg (Jul 26, 3:53 AM)
Low62 °F (Jul 18, 5:53 AM)7% (Jul 21, 5:53 PM)29.64 "Hg (Jul 16, 6:53 PM)
Average80 °F30%29.88 "Hg
* Reported Jul 13 10:53 PM — Jul 28 10:53 PM, Grand Junction, Weather by CustomWeather, © 2014

Note: Actual official high and low records may vary slightly from our data, if they occured in-between our weather recording intervals... More about our weather records

Advertising

Grand Junction weather history for previous 24 hours

 ConditionsComfort  
Time TempWeatherWind HumidityBarometerVisibility
10:53 PM
Jul 28
70 °FPassing clouds.6 mph64%30.05 "Hg10 mi
9:53 PM73 °FOvercast.18 mph51%30.03 "Hg10 mi
8:53 PM73 °FMore clouds than sun.15 mph53%30.03 "Hg10 mi
7:53 PM78 °FMostly cloudy.18 mph43%29.99 "Hg10 mi
6:53 PM81 °FOvercast.6 mph38%29.98 "Hg10 mi
5:53 PM84 °FScattered clouds.8 mph33%29.97 "Hg10 mi
4:53 PM86 °FScattered clouds.10 mph31%29.98 "Hg10 mi
3:53 PM85 °FSunny.7 mph34%29.98 "Hg10 mi
2:53 PM86 °FSunny.7 mph31%30.01 "Hg10 mi
1:53 PM85 °FPassing clouds.8 mph32%30.01 "Hg10 mi
12:53 PM82 °FPassing clouds.8 mph38%30.06 "Hg10 mi
11:53 AM79 °FPartly sunny.6 mph45%30.09 "Hg10 mi
10:53 AM80 °FScattered clouds.6 mph41%30.09 "Hg10 mi
9:53 AM78 °FSunny.5 mph42%30.09 "Hg10 mi
8:53 AM75 °FSunny.6 mph45%30.10 "Hg10 mi
7:53 AM73 °FSunny.3 mph46%30.09 "Hg10 mi
6:53 AM69 °FClear.No wind49%30.09 "Hg10 mi
5:53 AM68 °FClear.No wind49%30.07 "Hg10 mi
4:53 AM68 °FClear.No wind51%30.05 "Hg10 mi
3:53 AM74 °FClear.3 mph43%30.02 "Hg10 mi
2:53 AM74 °FClear.8 mph41%30.02 "Hg10 mi
1:53 AM77 °FPassing clouds.3 mph37%30.02 "Hg10 mi
12:53 AM76 °FPassing clouds.15 mph40%29.99 "Hg10 mi
Weather by CustomWeather, © 2014

See weather overviewHow to use our weather pages